Location: Betz
(49.1556°N, 2.9558°E)
Time: 07:32:09
(UTC+00:00)

Resurs 01 Rocket - Pass Details

Date: 18 September 2019
Orbit: 635 x 644 km, 98.0° (Epoch: 20 October)

Event Time Altitude Azimuth Distance (km) Brightness Sun altitude
Exits shadow 19:05:43 18° 106° (ESE) 1,589 3.0 -12.1°
Maximum altitude 19:07:57 26° 64° (ENE) 1,260 2.7 -12.4°
Drops below altitude 10° 19:11:39 10° 8° (N) 2,050 4.4 -13.0°
Sets 19:14:08 0° 356° (N) 2,966 5.4 -13.4°
